N4DWK Weather Reports


Display with metric or nautical units.
time (UTC)temp
F
wind
direction
speed
MPH
gust
MPH
rain 1hr
in
rain 24hr
in
rain mn
in
humidity
%
barometer
mb
20260903165504 91 11 3.0 6.0 0.00 0.00 0.00 70 1016.4
20260903165004 91 355 1.0 3.0 0.00 0.00 0.00 72 1016.5
20260903164504 90 355 0.0 3.0 0.00 0.00 0.00 73 1016.6
20260903164004 90 357 2.0 5.0 0.00 0.00 0.00 73 1016.6
20260903163504 89 355 2.0 5.0 0.00 0.00 0.00 74 1016.7
20260903163005 89 340 2.0 5.0 0.00 0.00 0.00 74 1016.7
20260903162504 89 128 1.0 3.0 0.00 0.00 0.00 74 1016.8
20260903162004 89 32 1.0 5.0 0.00 0.00 0.00 74 1016.9
20260903161504 89 5 2.0 5.0 0.00 0.00 0.00 75 1016.9
20260903161004 89 46 2.0 5.0 0.00 0.00 0.00 75 1016.9
20260903160504 88 90 2.0 5.0 0.00 0.00 0.00 75 1016.9
20260903160004 88 39 2.0 6.0 0.00 0.00 0.00 75 1017.0
20260903155503 88 7 3.0 6.0 0.00 0.00 0.00 75 1017.1
20260903155004 88 5 2.0 5.0 0.00 0.00 0.00 76 1017.0
20260903154504 88 32 3.0 5.0 0.00 0.00 0.00 79 1017.1
20260903154004 87 145 0.0 5.0 0.00 0.00 0.00 77 1017.0
20260903153506 87 23 0.0 5.0 0.00 0.00 0.00 79 1017.1
20260903153004 87 35 2.0 5.0 0.00 0.00 0.00 78 1017.1
20260903152504 87 30 2.0 3.0 0.00 0.00 0.00 79 1017.1
20260903152004 87 120 2.0 3.0 0.00 0.00 0.00 79 1017.1
20260903151504 86 127 1.0 8.0 0.00 0.00 0.00 79 1017.2
20260903151004 86 0 2.0 8.0 0.00 0.00 0.00 78 1017.1
20260903150503 86 107 2.0 6.0 0.00 0.00 0.00 78 1017.2
20260903150005 86 46 1.0 7.0 0.00 0.00 0.00 78 1017.1
20260903145503 86 350 2.0 7.0 0.00 0.00 0.00 78 1017.1
20260903145004 86 5 2.0 7.0 0.00 0.00 0.00 78 1017.1
20260903144504 86 21 3.0 7.0 0.00 0.00 0.00 78 1016.9
20260903144004 86 38 1.0 6.0 0.00 0.00 0.00 79 1016.9
20260903143503 85 354 2.0 6.0 0.00 0.00 0.00 78 1016.8
20260903143005 85 31 2.0 5.0 0.00 0.00 0.00 80 1016.8
20260903142505 85 14 0.0 6.0 0.00 0.00 0.00 80 1016.6
20260903142004 85 356 3.0 6.0 0.00 0.00 0.00 80 1016.8
20260903141504 84 218 2.0 5.0 0.00 0.00 0.00 79 1016.6
20260903141004 84 225 3.0 5.0 0.00 0.00 0.00 79 1016.5
20260903140504 84 280 0.0 3.0 0.00 0.00 0.00 80 1016.5
20260903140004 84 238 1.0 5.0 0.00 0.00 0.00 80 1016.5
20260903135505 84 222 1.0 5.0 0.00 0.00 0.00 80 1016.5
20260903135004 83 223 3.0 5.0 0.00 0.00 0.00 81 1016.5
20260903134505 83 246 1.0 3.0 0.00 0.00 0.00 82 1016.5
20260903134004 83 245 2.0 3.0 0.00 0.00 0.00 83 1016.5
20260903133507 83 247 2.0 3.0 0.00 0.00 0.00 83 1016.6
20260903133007 82 256 1.0 3.0 0.00 0.00 0.00 84 1016.6
20260903132507 82 342 1.0 3.0 0.00 0.00 0.00 85 1016.7
20260903132007 81 225 1.0 3.0 0.00 0.00 0.00 85 1016.8
20260903131509 81 225 2.0 3.0 0.00 0.00 0.00 85 1016.8
20260903131007 80 225 0.0 3.0 0.00 0.00 0.00 86 1016.8
20260903130507 80 225 1.0 3.0 0.00 0.00 0.00 88 1016.9
20260903130007 80 225 0.0 2.0 0.00 0.00 0.00 90 1016.9
20260903125507 79 225 1.0 2.0 0.00 0.00 0.00 90 1017.1
20260903125007 79 224 0.0 2.0 0.00 0.00 0.00 92 1017.1
20260903124507 78 224 1.0 2.0 0.00 0.00 0.00 92 1017.1
20260903124008 78 224 0.0 2.0 0.00 0.00 0.00 93 1017.2
20260903123507 77 224 1.0 2.0 0.00 0.00 0.00 94 1017.1
20260903123008 77 22 0.0 1.0 0.00 0.00 0.00 95 1017.0
20260903122507 77 22 0.0 1.0 0.00 0.00 0.00 95 1017.0
20260903122007 77 102 0.0 0.0 0.00 0.00 0.00 95 1017.1
20260903121507 77 102 0.0 0.0 0.00 0.00 0.00 95 1017.1
20260903121007 77 102 0.0 0.0 0.00 0.00 0.00 95 1017.1
20260903120507 76 102 0.0 0.0 0.00 0.00 0.00 95 1017.1
20260903120008 76 102 0.0 0.0 0.00 0.00 0.00 95 1017.0
20260903115509 76 102 0.0 0.0 0.00 0.00 0.00 95 1017.1
20260903115008 76 79 0.0 0.0 0.00 0.00 0.00 95 1017.0
20260903114507 76 79 0.0 0.0 0.00 0.00 0.00 95 1016.9
20260903114007 76 79 0.0 0.0 0.00 0.00 0.00 95 1016.9
20260903113507 75 79 0.0 0.0 0.00 0.00 0.00 95 1016.9
20260903113007 75 79 0.0 0.0 0.00 0.00 0.00 95 1016.8
20260903112507 75 79 0.0 0.0 0.00 0.00 0.00 95 1016.7
20260903112007 75 79 0.0 0.0 0.00 0.00 0.00 95 1016.7
20260903111507 75 79 0.0 0.0 0.00 0.00 0.00 95 1016.6
20260903111008 75 79 0.0 0.0 0.00 0.00 0.00 95 1016.6
20260903110507 75 79 0.0 0.0 0.00 0.00 0.00 95 1016.5
20260903110007 75 79 0.0 0.0 0.00 0.00 0.00 95 1016.5
20260903105507 75 79 0.0 0.0 0.00 0.00 0.00 95 1016.4
20260903105007 75 79 0.0 0.0 0.00 0.00 0.00 95 1016.4
20260903104507 75 79 0.0 0.0 0.00 0.00 0.00 95 1016.4
20260903104007 75 79 0.0 0.0 0.00 0.00 0.00 95 1016.5
20260903103506 75 79 0.0 0.0 0.00 0.00 0.00 95 1016.5
20260903103008 75 79 0.0 0.0 0.00 0.00 0.00 95 1016.5
20260903102507 75 79 0.0 0.0 0.00 0.00 0.00 95 1016.4
20260903102007 75 79 0.0 0.0 0.00 0.00 0.00 95 1016.5
20260903101507 76 79 0.0 0.0 0.00 0.00 0.00 95 1016.5
20260903101007 76 79 0.0 0.0 0.00 0.00 0.00 95 1016.5
20260903100507 76 79 0.0 0.0 0.00 0.00 0.00 95 1016.3
20260903100007 76 79 0.0 0.0 0.00 0.00 0.00 95 1016.2
20260903095507 76 79 0.0 0.0 0.00 0.00 0.00 95 1016.3
20260903095006 76 79 0.0 0.0 0.00 0.00 0.00 95 1016.4
20260903094508 76 79 0.0 0.0 0.00 0.00 0.00 95 1016.5
20260903094008 76 79 0.0 0.0 0.00 0.00 0.00 95 1016.4
20260903093507 76 79 0.0 0.0 0.00 0.00 0.00 95 1016.4
20260903093007 76 79 0.0 0.0 0.00 0.00 0.00 95 1016.4
20260903092507 76 79 0.0 0.0 0.00 0.00 0.00 95 1016.4
20260903092007 76 79 0.0 0.0 0.00 0.00 0.00 95 1016.3
20260903091507 76 79 0.0 0.0 0.00 0.00 0.00 95 1016.2
20260903091007 76 79 0.0 0.0 0.00 0.00 0.00 95 1016.1
20260903090506 76 79 0.0 0.0 0.00 0.00 0.00 95 1016.1
20260903090007 76 79 0.0 0.0 0.00 0.00 0.00 95 1016.0
20260903085506 76 79 0.0 0.0 0.00 0.00 0.00 95 1015.9
20260903085007 76 79 0.0 0.0 0.00 0.00 0.00 95 1015.9
20260903084506 76 79 0.0 0.0 0.00 0.00 0.00 95 1016.0
20260903084007 76 79 0.0 0.0 0.00 0.00 0.00 95 1016.0
20260903083506 76 79 0.0 0.0 0.00 0.00 0.00 95 1016.0
20260903083006 76 79 0.0 0.0 0.00 0.00 0.00 95 1015.8
20260903082508 76 79 0.0 0.0 0.00 0.00 0.00 95 1015.8
20260903082006 76 79 0.0 0.0 0.00 0.00 0.00 95 1015.9
20260903081507 76 79 0.0 0.0 0.00 0.00 0.00 95 1016.0
20260903081007 76 79 0.0 0.0 0.00 0.00 0.00 94 1016.1
20260903080507 76 79 0.0 0.0 0.00 0.00 0.00 94 1016.1
20260903080007 76 79 0.0 0.0 0.00 0.00 0.00 94 1016.2
20260903075507 76 79 0.0 0.0 0.00 0.00 0.00 94 1016.1
20260903075007 76 79 0.0 0.0 0.00 0.00 0.00 94 1016.1
20260903074507 76 79 0.0 0.0 0.00 0.00 0.00 94 1016.2
20260903074008 76 79 0.0 0.0 0.00 0.00 0.00 94 1016.2
20260903073507 76 79 0.0 0.0 0.00 0.00 0.00 94 1016.2
20260903073006 77 79 0.0 0.0 0.00 0.00 0.00 94 1016.1
20260903072507 77 79 0.0 0.0 0.00 0.00 0.00 94 1016.2
20260903072006 77 79 0.0 0.0 0.00 0.00 0.00 94 1016.2
20260903071506 77 79 0.0 0.0 0.00 0.00 0.00 94 1016.3
20260903071007 77 79 0.0 0.0 0.00 0.00 0.00 94 1016.4
20260903070507 77 79 0.0 0.0 0.00 0.00 0.00 94 1016.3
20260903070007 77 79 0.0 0.0 0.00 0.00 0.00 94 1016.4
20260903065507 77 79 0.0 0.0 0.00 0.00 0.00 94 1016.4
20260903065006 77 79 0.0 0.0 0.00 0.00 0.00 94 1016.3
20260903064506 77 79 0.0 0.0 0.00 0.00 0.00 94 1016.3
20260903064007 77 79 0.0 0.0 0.00 0.00 0.00 93 1016.3
20260903063506 77 79 0.0 0.0 0.00 0.00 0.00 93 1016.4
20260903063006 77 79 0.0 0.0 0.00 0.00 0.00 93 1016.5
20260903062506 77 79 0.0 0.0 0.00 0.00 0.00 93 1016.5
20260903062008 77 79 0.0 0.0 0.00 0.00 0.00 93 1016.4
20260903061507 77 79 0.0 0.0 0.00 0.00 0.00 93 1016.5
20260903061007 77 79 0.0 0.0 0.00 0.00 0.00 93 1016.5
20260903060507 78 79 0.0 0.0 0.00 0.00 0.00 93 1016.4
20260903060006 78 79 0.0 0.0 0.00 0.00 0.00 93 1016.4
20260903055507 78 79 0.0 0.0 0.00 0.00 0.00 93 1016.5
20260903055006 78 79 0.0 0.0 0.00 0.00 0.00 93 1016.7
20260903054507 78 79 0.0 0.0 0.00 0.00 0.00 93 1016.7
20260903054007 78 79 0.0 0.0 0.00 0.00 0.00 93 1016.7
20260903053507 78 79 0.0 0.0 0.00 0.00 0.00 93 1016.7
20260903053006 78 79 0.0 0.0 0.00 0.00 0.00 93 1016.8
20260903052507 78 79 0.0 2.0 0.00 0.00 0.00 93 1016.9
20260903052007 78 79 0.0 3.0 0.00 0.00 0.00 93 1016.9
20260903051507 78 128 0.0 3.0 0.00 0.00 0.00 93 1016.9
20260903051007 78 123 2.0 3.0 0.00 0.00 0.00 93 1017.0
20260903050506 78 136 0.0 0.0 0.00 0.00 0.00 93 1017.0
20260903050007 78 136 0.0 0.0 0.00 0.00 0.00 93 1016.9
20260903045507 78 136 0.0 0.0 0.00 0.00 0.00 93 1016.8
20260903045006 78 136 0.0 0.0 0.00 0.00 0.00 93 1016.9
20260903044507 78 136 0.0 0.0 0.00 0.00 0.00 93 1016.9
20260903044007 78 136 0.0 0.0 0.00 0.00 0.00 93 1016.8
20260903043507 78 136 0.0 0.0 0.00 0.00 0.00 93 1016.8
20260903043006 78 136 0.0 0.0 0.00 0.00 0.00 93 1016.8
20260903042506 78 136 0.0 0.0 0.00 0.00 0.00 93 1016.8
20260903042007 78 136 0.0 0.0 0.00 0.00 0.00 93 1016.7
20260903041506 78 136 0.0 0.0 0.00 0.00 0.00 93 1016.6
20260903041007 78 136 0.0 0.0 0.00 0.00 0.00 92 1016.6
20260903040506 79 136 0.0 0.0 0.00 0.00 0.00 92 1016.6
20260903040009 79 136 0.0 0.0 0.00 0.00 0.00 92 1016.5
20260903035506 79 136 0.0 0.0 0.00 0.00 0.00 92 1016.5
20260903035006 79 136 0.0 0.0 0.00 0.00 0.00 92 1016.5
20260903034506 79 136 0.0 0.0 0.00 0.00 0.00 92 1016.6
20260903034006 79 136 0.0 0.0 0.00 0.00 0.00 92 1016.3
20260903033507 79 136 0.0 0.0 0.00 0.00 0.00 92 1016.3
20260903033006 79 136 0.0 0.0 0.00 0.00 0.00 92 1016.2
20260903032506 79 136 0.0 0.0 0.00 0.00 0.00 91 1016.2
20260903032007 80 136 0.0 0.0 0.00 0.00 0.00 92 1016.3
20260903031506 80 136 0.0 0.0 0.00 0.00 0.00 92 1016.3
20260903031006 80 136 0.0 0.0 0.00 0.00 0.00 91 1016.3
20260903030506 80 136 0.0 0.0 0.00 0.00 0.00 91 1016.4
20260903030007 80 136 0.0 0.0 0.00 0.00 0.00 91 1016.4
20260903025506 80 136 0.0 0.0 0.00 0.00 0.00 91 1016.5
20260903025007 80 136 0.0 0.0 0.00 0.00 0.00 91 1016.4
20260903024506 80 136 0.0 0.0 0.00 0.00 0.00 91 1016.4
20260903024006 80 136 0.0 0.0 0.00 0.00 0.00 91 1016.6
20260903023506 80 136 0.0 0.0 0.00 0.00 0.00 90 1016.6
20260903023006 80 136 0.0 0.0 0.00 0.00 0.00 90 1016.6
20260903022507 80 136 0.0 0.0 0.00 0.00 0.00 90 1016.7
20260903022006 80 136 0.0 0.0 0.00 0.00 0.00 90 1016.7
20260903021507 80 136 0.0 0.0 0.00 0.00 0.00 90 1016.7
20260903021007 81 136 0.0 0.0 0.00 0.00 0.00 90 1016.7
20260903020506 81 136 0.0 0.0 0.00 0.00 0.00 90 1016.8
20260903020006 81 136 0.0 0.0 0.00 0.00 0.00 89 1016.8
20260903015506 81 136 0.0 0.0 0.00 0.00 0.00 89 1016.9
20260903015007 81 136 0.0 0.0 0.00 0.00 0.00 89 1017.0
20260903014506 81 136 0.0 0.0 0.00 0.00 0.00 89 1017.0
20260903014006 81 136 0.0 0.0 0.00 0.00 0.00 89 1016.8
20260903013506 81 136 0.0 0.0 0.00 0.00 0.00 88 1017.0
20260903013006 81 136 0.0 0.0 0.00 0.00 0.00 88 1017.0
20260903012507 81 136 0.0 0.0 0.00 0.00 0.00 88 1017.1
20260903012007 81 136 0.0 0.0 0.00 0.00 0.00 88 1017.0
20260903011506 82 136 0.0 0.0 0.00 0.00 0.00 88 1017.0
20260903011006 82 136 0.0 3.0 0.00 0.00 0.00 88 1016.9
20260903010506 82 136 0.0 3.0 0.00 0.00 0.00 87 1016.9
20260903010007 82 137 0.0 3.0 0.00 0.00 0.00 87 1016.9
20260903005506 82 137 1.0 3.0 0.00 0.00 0.00 87 1016.8
20260903005006 82 195 1.0 3.0 0.00 0.00 0.00 87 1016.8
20260903004506 82 199 1.0 3.0 0.00 0.00 0.00 86 1016.7
20260903004006 82 202 0.0 3.0 0.00 0.00 0.00 86 1016.7
20260903003505 82 202 1.0 3.0 0.00 0.00 0.00 86 1016.7
20260903003007 82 107 0.0 3.0 0.00 0.00 0.00 86 1016.6
20260903002507 83 107 0.0 3.0 0.00 0.00 0.00 85 1016.4
20260903002006 83 107 1.0 3.0 0.00 0.00 0.00 85 1016.5
20260903001506 83 107 0.0 1.0 0.00 0.00 0.00 85 1016.7
20260903001007 83 107 0.0 2.0 0.00 0.00 0.00 85 1016.6
20260903000506 83 107 1.0 2.0 0.00 0.00 0.00 85 1016.5
20260903000006 83 107 0.0 3.0 0.00 0.00 0.00 84 1016.5
20260902235506 83 107 1.0 3.0 0.00 0.00 0.00 84 1016.3
20260902235007 83 107 0.0 0.0 0.00 0.00 0.00 84 1016.3
20260902234506 83 107 0.0 0.0 0.00 0.00 0.00 84 1016.4
20260902234006 83 107 0.0 5.0 0.00 0.00 0.00 84 1016.4
20260902233506 83 107 0.0 6.0 0.00 0.00 0.00 83 1016.3
20260902233006 83 126 1.0 7.0 0.00 0.00 0.00 83 1016.3
20260902232506 84 126 3.0 7.0 0.00 0.00 0.00 83 1016.4
20260902232006 84 126 1.0 3.0 0.00 0.00 0.00 83 1016.6
20260902231506 84 139 1.0 3.0 0.00 0.00 0.00 83 1016.9
20260902231006 84 147 0.0 0.0 0.00 0.00 0.00 83 1017.0
20260902230507 84 145 0.0 3.0 0.00 0.00 0.00 83 1017.0
20260902230006 84 142 1.0 5.0 0.00 0.00 0.00 83 1016.8
20260902225506 84 137 1.0 9.0 0.00 0.00 0.00 83 1016.7
20260902225006 84 123 1.0 9.0 0.00 0.00 0.00 83 1016.4
20260902224506 85 120 2.0 9.0 0.00 0.00 0.00 83 1016.5
20260902224006 85 163 2.0 8.0 0.00 0.00 0.00 82 1016.8
20260902223506 85 131 2.0 5.0 0.00 0.00 0.00 81 1016.9
20260902223006 85 134 2.0 5.0 0.00 0.00 0.00 81 1017.1
20260902222506 86 311 1.0 5.0 0.00 0.00 0.00 80 1017.2
20260902222006 86 158 1.0 5.0 0.00 0.00 0.00 79 1017.4
20260902221506 87 195 2.0 3.0 0.00 0.00 0.00 78 1017.1
20260902221008 87 173 0.0 3.0 0.00 0.00 0.00 76 1017.0
20260902220507 87 166 0.0 3.0 0.00 0.00 0.00 75 1017.0
20260902220006 88 133 1.0 3.0 0.00 0.00 0.00 74 1016.8
20260902215507 88 141 0.0 3.0 0.00 0.00 0.00 71 1016.9
20260902215006 89 140 1.0 3.0 0.00 0.00 0.00 68 1017.0
20260902214506 89 126 1.0 3.0 0.00 0.00 0.00 66 1017.0
20260902214006 90 204 1.0 5.0 0.00 0.00 0.00 64 1016.9
20260902213506 90 207 2.0 10.0 0.00 0.00 0.00 66 1016.7
20260902213006 89 139 5.0 10.0 0.00 0.00 0.00 66 1016.8
20260902212506 90 132 6.0 9.0 0.00 0.00 0.00 63 1017.0
20260902212006 90 23 4.0 8.0 0.00 0.00 0.00 66 1017.0
20260902211506 89 138 2.0 12.0 0.00 0.00 0.00 70 1016.6
20260902211007 88 112 3.0 17.0 0.00 0.00 0.00 69 1016.7
20260902210506 89 127 5.0 17.0 0.00 0.00 0.00 71 1016.8
20260902210007 89 136 2.0 12.0 0.00 0.00 0.00 70 1016.7
20260902205506 91 96 6.0 20.0 0.00 0.00 0.00 68 1016.8
20260902205007 92 149 5.0 20.0 0.00 0.00 0.00 66 1016.9
20260902204506 94 128 3.0 16.0 0.00 0.00 0.00 62 1016.7
20260902204007 96 140 3.0 16.0 0.00 0.00 0.00 60 1016.6
20260902203506 96 46 5.0 16.0 0.00 0.00 0.00 62 1016.5
20260902203006 95 103 3.0 9.0 0.00 0.00 0.00 63 1016.5
20260902202505 94 11 3.0 7.0 0.00 0.00 0.00 64 1016.5
20260902202005 95 49 2.0 10.0 0.00 0.00 0.00 61 1016.6
20260902201505 96 134 2.0 10.0 0.00 0.00 0.00 60 1016.6
20260902201006 97 30 3.0 10.0 0.00 0.00 0.00 59 1016.6
20260902200505 97 36 1.0 8.0 0.00 0.00 0.00 60 1016.7
20260902200006 97 5 2.0 8.0 0.00 0.00 0.00 60 1016.7
20260902195507 97 41 3.0 9.0 0.00 0.00 0.00 56 1016.7
20260902195006 98 355 5.0 9.0 0.00 0.00 0.00 57 1016.6
20260902194505 96 5 1.0 6.0 0.00 0.00 0.00 61 1016.4
20260902194005 96 139 1.0 6.0 0.00 0.00 0.00 60 1016.4
20260902193506 97 156 2.0 6.0 0.00 0.00 0.00 60 1016.4
20260902193007 97 30 2.0 6.0 0.00 0.00 0.00 59 1016.4
20260902192506 98 5 1.0 5.0 0.00 0.00 0.00 57 1016.4
20260902192005 96 126 1.0 5.0 0.00 0.00 0.00 60 1016.5
20260902191505 98 116 2.0 6.0 0.00 0.00 0.00 57 1016.5
20260902191005 99 358 2.0 6.0 0.00 0.00 0.00 55 1016.6
20260902190505 100 32 1.0 6.0 0.00 0.00 0.00 57 1016.6
20260902190007 99 0 2.0 5.0 0.00 0.00 0.00 55 1016.7
20260902185506 98 358 3.0 5.0 0.00 0.00 0.00 55 1016.7
20260902185005 97 329 2.0 5.0 0.00 0.00 0.00 58 1016.8
20260902184506 98 293 2.0 5.0 0.00 0.00 0.00 56 1016.9
20260902184006 98 264 2.0 6.0 0.00 0.00 0.00 57 1017.0
20260902183505 98 292 2.0 6.0 0.00 0.00 0.00 56 1017.1
20260902183005 98 352 3.0 6.0 0.00 0.00 0.00 57 1017.0
20260902182506 97 343 2.0 6.0 0.00 0.00 0.00 59 1017.2
20260902182006 97 47 3.0 7.0 0.00 0.00 0.00 58 1017.2
20260902181506 96 134 2.0 8.0 0.00 0.00 0.00 58 1017.2
20260902181006 97 39 3.0 8.0 0.00 0.00 0.00 58 1017.3
20260902180506 96 123 1.0 9.0 0.00 0.00 0.00 57 1017.3
20260902180007 97 32 3.0 9.0 0.00 0.00 0.00 57 1017.2
20260902175505 97 0 4.0 7.0 0.00 0.00 0.00 58 1017.2
20260902175005 96 4 2.0 7.0 0.00 0.00 0.00 58 1017.3
20260902174506 96 27 3.0 7.0 0.00 0.00 0.00 58 1017.3
20260902174006 95 25 2.0 5.0 0.00 0.00 0.00 59 1017.3
20260902173506 95 26 2.0 8.0 0.00 0.00 0.00 59 1017.3
20260902173006 95 38 1.0 10.0 0.00 0.00 0.00 59 1017.3
20260902172506 95 355 3.0 10.0 0.00 0.00 0.00 60 1017.3
20260902172006 94 49 1.0 7.0 0.00 0.00 0.00 61 1017.3
20260902171506 93 343 2.0 6.0 0.00 0.00 0.00 64 1017.2
20260902171005 93 35 2.0 9.0 0.00 0.00 0.00 63 1017.3
20260902170506 93 27 3.0 9.0 0.00 0.00 0.00 63 1017.3
20260902170005 92 13 3.0 8.0 0.00 0.00 0.00 62 1017.3